Milledgeville, GA

11:58 PM EST on December 09, 2019 (GMT -0500)
Baldwin County

Weather History for KMLJ - October, 2019

Change the Weather History Date:

Saturday, October 19, 2019

  Actual Average (KOKZ) Record (KOKZ)
Temperature  
Mean Temperature 58 °F -  
Max Temperature 62 °F 74 °F 88 °F (2016)
Min Temperature 55 °F 49 °F 37 °F (2015)
Degree Days  
Heating Degree Days 6    
Growing Degree Days 8 (Base 50)    
Moisture  
Dew Point 55 °F    
Average Humidity 88    
Maximum Humidity 100    
Minimum Humidity 55    
Precipitation  
Precipitation 0.00 in - - ()
Sea Level Pressure  
Sea Level Pressure 29.86 in    
Wind  
Wind Speed 8 mph (East)    
Max Wind Speed 13 mph    
Max Gust Speed 21 mph    
Visibility 7 miles    
Events Rain , Thunderstorm    
Averages and records for this station are not official NWS values.
T = Trace of Precipitation, MM = Missing Value Source: NWS Daily Summary

Daily Weather History Graph

Daily Weather History Graph

Search for Another Location

Airport or City:

Astronomy

Oct. 19, 2019 Rise Set
Actual Time 7:40 AM EDT 6:55 PM EDT
Civil Twilight 7:15 AM EDT 7:20 PM EDT
Nautical Twilight 6:46 AM EDT 7:48 PM EDT
Astronomical Twilight 6:17 AM EDT 8:17 PM EDT
Moon 11:15 PM EDT (10/19) 12:59 PM EDT (10/19)
Length of Visible Light 12h 04m
Length of Day
11h 14m
Waning Gibbous, 70% of the Moon is Illuminated
Oct 19
Waning Gibbous
Oct 21
Last Quarter
Oct 27
New
Nov 4
First Quarter
Nov 12
Full

Hourly Weather History & Observations

Time (EDT) Temp. Dew Point Humidity Pressure Visibility Wind Dir Wind Speed Gust Speed Precip Events Conditions
12:15 AM 60.8 °F 48.2 °F 63% 29.99 in 10.0 mi ESE 9.2 mph - N/A   Clear
12:35 AM 60.8 °F 48.2 °F 63% 29.99 in 10.0 mi East 6.9 mph - N/A   Clear
12:55 AM 60.8 °F 48.2 °F 63% 29.99 in 10.0 mi ESE 6.9 mph - N/A   Clear
1:15 AM 60.8 °F 50.0 °F 68% 29.98 in 10.0 mi ESE 8.1 mph - N/A   Mostly Cloudy
1:35 AM 62.6 °F 48.2 °F 59% 29.98 in 10.0 mi East 9.2 mph - N/A   Overcast
1:55 AM 62.6 °F 48.2 °F 59% 29.98 in 10.0 mi ESE 8.1 mph - N/A   Overcast
2:15 AM 62.6 °F 48.2 °F 59% 29.97 in 10.0 mi East 9.2 mph - N/A   Overcast
2:35 AM 62.6 °F 48.2 °F 59% 29.97 in 10.0 mi ESE 6.9 mph - N/A   Overcast
2:55 AM 62.6 °F 48.2 °F 59% 29.96 in 10.0 mi East 10.4 mph - N/A   Overcast
3:15 AM 62.6 °F 46.4 °F 55% 29.96 in 10.0 mi ESE 8.1 mph - N/A   Overcast
3:35 AM 62.6 °F 48.2 °F 59% 29.96 in 10.0 mi ESE 5.8 mph - N/A   Overcast
3:55 AM 62.6 °F 46.4 °F 55% 29.95 in 10.0 mi ESE 8.1 mph - N/A   Overcast
4:15 AM 60.8 °F 48.2 °F 63% 29.95 in 10.0 mi East 9.2 mph - N/A Rain Light Rain
4:35 AM 60.8 °F 48.2 °F 63% 29.95 in 10.0 mi East 8.1 mph - N/A Rain Light Rain
4:55 AM 59.0 °F 50.0 °F 72% 29.94 in 10.0 mi East 4.6 mph - N/A Rain Rain
5:15 AM 59.0 °F 50.0 °F 72% 29.95 in 10.0 mi East 5.8 mph - N/A Rain Rain
5:35 AM 59.0 °F 51.8 °F 77% 29.95 in 10.0 mi East 4.6 mph - N/A Rain Light Rain
5:55 AM 57.2 °F 51.8 °F 82% 29.95 in 10.0 mi East 8.1 mph - N/A Rain Rain
6:15 AM 55.4 °F 51.8 °F 88% 29.95 in 10.0 mi East 10.4 mph - N/A Rain Rain
6:35 AM 55.4 °F 51.8 °F 88% 29.96 in 10.0 mi East 11.5 mph 16.1 mph N/A Rain Rain
6:55 AM 55.4 °F 51.8 °F 88% 29.96 in 10.0 mi East 8.1 mph - N/A Rain Rain
7:15 AM 55.4 °F 51.8 °F 88% 29.96 in 5.0 mi East 8.1 mph - N/A Rain Heavy Rain
7:35 AM 55.4 °F 53.6 °F 94% 29.96 in 7.0 mi East 8.1 mph - N/A Rain Rain
7:55 AM 55.4 °F 53.6 °F 94% 29.95 in 7.0 mi East 9.2 mph - N/A Rain Heavy Rain
8:15 AM 55.4 °F 53.6 °F 94% 29.95 in 7.0 mi East 8.1 mph - N/A Rain Rain
8:35 AM 55.4 °F 53.6 °F 94% 29.96 in 10.0 mi East 8.1 mph - N/A Rain Light Rain
8:55 AM 55.4 °F 53.6 °F 94% 29.96 in 7.0 mi East 9.2 mph 16.1 mph N/A Rain Rain
9:15 AM 55.4 °F 55.4 °F 100% 29.97 in 5.0 mi East 8.1 mph - N/A Rain Rain
9:35 AM 55.4 °F 55.4 °F 100% 29.96 in 4.0 mi East 9.2 mph - N/A Rain Rain
9:55 AM 55.4 °F 55.4 °F 100% 29.96 in 5.0 mi East 9.2 mph 18.4 mph N/A Rain Rain
10:35 AM 57.2 °F 55.4 °F 94% 29.95 in 4.0 mi East 6.9 mph - N/A Rain Rain
10:55 AM 57.2 °F 55.4 °F 94% 29.95 in 10.0 mi East 8.1 mph - N/A Rain Rain
11:15 AM 57.2 °F 55.4 °F 94% 29.95 in 7.0 mi East 11.5 mph - N/A Rain Rain
11:35 AM 59.0 °F 57.2 °F 94% 29.94 in 5.0 mi East 10.4 mph - N/A   Drizzle
11:55 AM 59.0 °F 57.2 °F 94% 29.94 in 5.0 mi East 8.1 mph - N/A Rain Rain
12:15 PM 59.0 °F 57.2 °F 94% 29.93 in 5.0 mi East 9.2 mph - N/A Rain Rain
12:35 PM 59.0 °F 57.2 °F 94% 29.91 in 4.0 mi ENE 9.2 mph - N/A Rain Rain
12:55 PM 59.0 °F 57.2 °F 94% 29.91 in 5.0 mi East 8.1 mph - N/A Rain Light Rain
1:15 PM 59.0 °F 57.2 °F 94% 29.89 in 7.0 mi ENE 9.2 mph - N/A Rain Rain
1:35 PM 59.0 °F 57.2 °F 94% 29.87 in 10.0 mi East 9.2 mph - N/A   Light Drizzle
1:55 PM 59.0 °F 59.0 °F 100% 29.85 in 7.0 mi ENE 8.1 mph - N/A Rain Light Rain
2:15 PM 59.0 °F 59.0 °F 100% 29.84 in 4.0 mi East 6.9 mph - N/A Rain Rain
2:35 PM 59.0 °F 59.0 °F 100% 29.83 in 7.0 mi ENE 6.9 mph - N/A Rain Rain
2:55 PM 59.0 °F 59.0 °F 100% 29.81 in 3.0 mi East 8.1 mph - N/A   Drizzle
3:15 PM 59.0 °F 59.0 °F 100% 29.80 in 4.0 mi East 9.2 mph 16.1 mph N/A Rain Heavy Rain
3:35 PM 59.0 °F 59.0 °F 100% 29.79 in 4.0 mi ENE 4.6 mph 17.3 mph N/A Rain Light Rain
3:55 PM 59.0 °F 59.0 °F 100% 29.79 in 2.5 mi East 6.9 mph - N/A Rain Rain
4:15 PM 59.0 °F 59.0 °F 100% 29.79 in 5.0 mi East 8.1 mph - N/A Rain Light Rain
4:35 PM 59.0 °F 59.0 °F 100% 29.78 in 5.0 mi ENE 6.9 mph - N/A Rain Rain
4:55 PM 59.0 °F 59.0 °F 100% 29.75 in 5.0 mi East 10.4 mph - N/A Rain Light Rain
5:15 PM 60.8 °F 59.0 °F 94% 29.73 in 7.0 mi East 12.7 mph 17.3 mph N/A Rain Rain
5:35 PM 60.8 °F 59.0 °F 94% 29.74 in 10.0 mi ENE 6.9 mph - N/A Rain Light Rain
5:55 PM 60.8 °F 59.0 °F 94% 29.73 in 10.0 mi East 8.1 mph - N/A Rain Rain
6:15 PM 60.8 °F 60.8 °F 100% 29.71 in 5.0 mi ENE 9.2 mph - N/A Rain Heavy Rain
6:35 PM 60.8 °F 59.0 °F 94% 29.74 in 7.0 mi NW 12.7 mph - N/A Rain Heavy Rain
6:55 PM 60.8 °F 59.0 °F 94% 29.71 in 7.0 mi ENE 11.5 mph 20.7 mph N/A Rain Light Rain
7:15 PM 60.8 °F 59.0 °F 94% 29.72 in 10.0 mi NNE 5.8 mph - N/A Rain Rain
7:35 PM 60.8 °F 59.0 °F 94% 29.72 in 5.0 mi NE 6.9 mph - N/A Rain , Thunderstorm Rain
7:55 PM 60.8 °F 59.0 °F 94% 29.72 in 7.0 mi NE 6.9 mph - N/A Rain Rain
8:15 PM 60.8 °F 59.0 °F 94% 29.71 in 7.0 mi NE 5.8 mph - N/A Rain Rain
8:35 PM 60.8 °F 59.0 °F 94% 29.70 in 7.0 mi East 8.1 mph - N/A Rain , Thunderstorm Rain
8:55 PM 60.8 °F 59.0 °F 94% 29.71 in 5.0 mi NE 4.6 mph - N/A Rain Light Rain
9:15 PM 60.8 °F 59.0 °F 94% 29.69 in 10.0 mi East 12.7 mph 17.3 mph N/A   Drizzle
9:35 PM 60.8 °F 59.0 °F 94% 29.68 in 10.0 mi East 8.1 mph 16.1 mph N/A Rain , Thunderstorm Rain
9:55 PM 60.8 °F 59.0 °F 94% 29.66 in 10.0 mi East 12.7 mph 20.7 mph N/A Thunderstorm Drizzle
10:15 PM 60.8 °F 59.0 °F 94% 29.66 in 7.0 mi East 9.2 mph 17.3 mph N/A   Drizzle
10:35 PM 60.8 °F 60.8 °F 100% 29.65 in 7.0 mi East 8.1 mph - N/A Rain Light Rain
10:55 PM 60.8 °F 60.8 °F 100% 29.65 in 7.0 mi ENE 4.6 mph 16.1 mph N/A Rain Light Rain
11:15 PM 60.8 °F 60.8 °F 100% 29.66 in 5.0 mi North 4.6 mph - N/A Rain Light Rain
11:35 PM 60.8 °F 60.8 °F 100% 29.66 in 4.0 mi North 5.8 mph - N/A   Heavy Drizzle
11:55 PM 60.8 °F 60.8 °F 100% 29.66 in 4.0 mi NNE 8.1 mph - N/A   Heavy Drizzle